DW1564 Weather Reports


time (UTC)temp
C
wind
direction
speed
KPH
gust
KPH
rain 1hr
cm
rain 24hr
cm
rain mn
cm
humidity
%
barometer
mb
20211017153041 14 141 0.0 3.2 0.00 0.00 0.00 17 1013.3
20211017151508 13 141 0.0 6.4 0.00 0.00 0.00 18 1013.4
20211017150004 11 141 0.0 0.0 0.00 0.00 0.00 20 1013.2
20211017144608 10 141 0.0 4.8 0.00 0.00 0.00 21 1013.0
20211017143059 9 141 0.0 0.0 0.00 0.00 0.00 22 1012.8
20211017141538 -17 0.0 0.0 0.00 0.00 0.00 1012.8
20211017140013 -17 0.0 0.0 0.00 0.00 0.00 1012.7
20211017134731 -17 0.0 0.0 0.00 0.00 0.00 1012.9
20211017133058 -17 0.0 0.0 0.00 0.00 0.00 1013.2
20211017131530 -17 0.0 0.0 0.00 0.00 0.00 1013.7
20211017130021 -17 0.0 0.0 0.00 0.00 0.00 1014.2
20211017124714 7 141 0.0 0.0 0.00 0.00 0.00 26 1014.5
20211017124503 7 141 0.0 0.0 0.00 0.00 0.00 26 1014.4
20211017123122 7 141 0.0 0.0 0.00 0.00 0.00 26 1014.5
20211017121649 7 141 0.0 0.0 0.00 0.00 0.00 26 1014.6
20211017120046 7 141 0.0 0.0 0.00 0.00 0.00 26 1014.6
20211017114534 7 141 0.0 0.0 0.00 0.00 0.00 26 1014.7
20211017113105 7 141 0.0 0.0 0.00 0.00 0.00 27 1014.8
20211017111519 7 141 0.0 0.0 0.00 0.00 0.00 27 1014.9
20211017110002 7 141 0.0 0.0 0.00 0.00 0.00 27 1015.0
20211017104553 7 141 0.0 0.0 0.00 0.00 0.00 27 1015.2
20211017103108 7 141 0.0 0.0 0.00 0.00 0.00 27 1015.1
20211017101523 7 141 0.0 0.0 0.00 0.00 0.00 27 1015.1
20211017100139 7 141 0.0 0.0 0.00 0.00 0.00 27 1015.2
20211017094502 7 141 0.0 0.0 0.00 0.00 0.00 28 1015.4
20211017093204 6 141 0.0 0.0 0.00 0.00 0.00 30 1015.6
20211017091549 6 141 0.0 0.0 0.00 0.00 0.00 30 1015.8
20211017090052 6 141 0.0 0.0 0.00 0.00 0.00 30 1016.0
20211017084531 6 141 0.0 0.0 0.00 0.00 0.00 31 1016.0
20211017083043 6 141 0.0 0.0 0.00 0.00 0.00 32 1016.3
20211017081505 6 141 0.0 0.0 0.00 0.00 0.00 33 1016.4
20211017080327 6 141 0.0 0.0 0.00 0.00 0.00 36 1016.7
20211017074553 5 141 0.0 0.0 0.00 0.00 0.00 38 1016.8
20211017073102 5 141 0.0 0.0 0.00 0.00 0.00 39 1016.9
20211017071531 5 141 0.0 0.0 0.00 0.00 0.00 39 1017.0
20211017070046 5 141 0.0 0.0 0.00 0.00 0.00 40 1017.2
20211017064503 5 141 0.0 0.0 0.00 0.00 0.00 40 1017.3
20211017063003 5 141 0.0 0.0 0.00 0.00 0.00 41 1017.6
20211017061719 5 141 0.0 0.0 0.00 0.00 0.00 41 1017.8
20211017060048 5 141 0.0 0.0 0.00 0.00 0.00 40 1017.8
20211017054544 5 141 0.0 0.0 0.00 0.00 0.00 39 1017.8
20211017053030 5 141 0.0 0.0 0.00 0.00 0.00 38 1018.1
20211017051504 5 141 0.0 0.0 0.00 0.00 0.00 38 1018.1
20211017050008 6 141 0.0 0.0 0.00 0.00 0.00 37 1018.2
20211017044619 6 141 0.0 0.0 0.00 0.00 0.00 37 1018.4
20211017043123 6 141 0.0 0.0 0.00 0.00 0.00 37 1018.6
20211017041545 6 141 0.0 0.0 0.00 0.00 0.00 36 1018.6
20211017040113 6 141 0.0 0.0 0.00 0.00 0.00 36 1018.8
20211017034505 6 141 0.0 1.6 0.00 0.00 0.00 36 1019.0
20211017033009 7 141 0.0 1.6 0.00 0.00 0.00 35 1019.3
20211017031618 6 141 0.0 0.0 0.00 0.00 0.00 35 1019.4
20211017030107 6 141 0.0 0.0 0.00 0.00 0.00 36 1019.4
20211017024530 6 141 0.0 0.0 0.00 0.00 0.00 36 1019.5
20211017023052 6 141 0.0 0.0 0.00 0.00 0.00 36 1019.7
20211017021515 6 141 0.0 0.0 0.00 0.00 0.00 36 1019.9
20211017020007 7 141 0.0 0.0 0.00 0.00 0.00 35 1020.0
20211017014732 7 141 0.0 0.0 0.00 0.00 0.00 34 1020.2
20211017013115 7 141 0.0 0.0 0.00 0.00 0.00 34 1020.3
20211017011530 8 141 0.0 0.0 0.00 0.00 0.00 33 1020.5
20211017010039 8 141 0.0 0.0 0.00 0.00 0.00 32 1020.1
20211017004519 9 141 0.0 0.0 0.00 0.00 0.00 31 1020.1
20211017003018 10 141 0.0 0.0 0.00 0.00 0.00 30 1019.9
20211017001805 11 141 0.0 0.0 0.00 0.00 0.00 29 1019.9
20211017000057 12 141 0.0 0.0 0.00 0.00 0.00 28 1019.7
20211016234548 13 141 0.0 0.0 0.00 0.00 0.00 27 1020.0
20211016233034 15 141 0.0 3.2 0.00 0.00 0.00 23 1019.8
20211016231515 15 141 0.0 4.8 0.00 0.00 0.00 23 1019.8
20211016230018 15 142 0.0 4.8 0.00 0.00 0.00 22 1020.0
20211016224641 16 142 0.0 11.3 0.00 0.00 0.00 22 1020.1
20211016223118 16 141 0.0 4.8 0.00 0.00 0.00 22 1020.1
20211016221540 16 142 0.0 4.8 0.00 0.00 0.00 22 1020.4
20211016220047 16 148 0.0 9.7 0.00 0.00 0.00 22 1020.4
20211016214521 17 148 0.0 6.4 0.00 0.00 0.00 22 1020.5
20211016213036 16 159 0.0 16.1 0.00 0.00 0.00 21 1020.8
20211016211614 16 114 0.0 8.0 0.00 0.00 0.00 21 1020.8
20211016210203 16 114 0.0 8.0 0.00 0.00 0.00 22 1020.8
20211016204603 16 113 0.0 14.5 0.00 0.00 0.00 21 1020.7
20211016203043 16 107 0.0 11.3 0.00 0.00 0.00 21 1020.7
20211016201514 16 129 1.6 11.3 0.00 0.00 0.00 21 1021.1
20211016200040 16 128 0.0 4.8 0.00 0.00 0.00 21 1021.0
20211016193051 15 133 0.0 8.0 0.00 0.00 0.00 22 1021.5
20211016191618 15 122 0.0 6.4 0.00 0.00 0.00 22 1021.9
20211016190054 15 126 0.0 12.9 0.00 0.00 0.00 24 1022.2
20211016184534 15 136 3.2 11.3 0.00 0.00 0.00 22 1022.4
20211016183004 16 121 0.0 12.9 0.00 0.00 0.00 22 1022.7
20211016181506 15 139 0.0 1.6 0.00 0.00 0.00 24 1022.9
20211016180138 15 139 0.0 6.4 0.00 0.00 0.00 23 1023.1
20211016174619 15 140 0.0 1.6 0.00 0.00 0.00 23 1023.4
20211016173044 15 140 0.0 0.0 0.00 0.00 0.00 24 1023.6
20211016171532 14 140 0.0 6.4 0.00 0.00 0.00 23 1023.8
20211016170026 13 140 0.0 11.3 0.00 0.00 0.00 24 1024.2
20211016164510 13 140 0.0 12.9 0.00 0.00 0.00 23 1024.4
20211016163016 12 149 0.0 1.6 0.00 0.00 0.00 26 1024.5
20211016161502 12 149 0.0 0.0 0.00 0.00 0.00 27 1024.6
20211016160127 11 149 0.0 1.6 0.00 0.00 0.00 26 1024.6
20211016154854 10 149 0.0 3.2 0.00 0.00 0.00 27 1024.7
20211016153105 10 149 0.0 4.8 0.00 0.00 0.00 27 1024.6